Home > Weather > Paradise > Past weeks

Flag for Canada Weather for the Past 2 Weeks in Paradise, Newfoundland and Labrador, Canada

Now
19 °F

Broken clouds.


Feels Like: 4 °F
Forecast: 18 / 30 °F
Wind: 18 mph from Northwest

Location: St. John's

Current Time: Feb 8, 2016 at 9:35:15 AM

Latest Report: Feb 8, 2016 at 8:30 AM


Visibility: 15 mi

Pressure: 30.12 "Hg

Humidity: 68%

Dew point: 10 °F

Location of ParadiseLocation

Historic Weather in Paradise — Graph

°F

Paradise Temperature Yesterday

Maximum temperature yesterday: 28 °F (at 1:30 PM)
Minimum temperature yesterday: 19 °F (at 6:30 AM)
Average temperature yesterday: 25 °F

High & Low Weather Summary for the Past Weeks

 TemperatureHumidityPressure
High55 °F (Feb 6, 5:30 AM)100% (Jan 27, 11:30 AM)30.39 "Hg (Jan 27, 11:30 AM)
Low10 °F (Jan 26, 6:30 AM)50% (Jan 25, 12:30 PM)28.69 "Hg (Jan 30, 4:30 AM)
Average29 °F82%29.85 "Hg
* Reported Jan 24 8:30 AM — Feb 8 8:30 AM, Paradise, Weather by CustomWeather, © 2016

Note: Actual official high and low records may vary slightly from our data, if they occured in-between our weather recording intervals... More about our weather records

Advertising

Paradise Weather History for the Previous 24 Hours

 ConditionsComfort  
Time TempWeatherWind HumidityBarometerVisibility
8:30 AM
Mon, Feb 8
19 °FBroken clouds.18 mph68%30.12 "Hg15 mi
7:30 AM19 °FPartly sunny.13 mph63%30.11 "Hg15 mi
6:30 AM19 °FPassing clouds.23 mph63%30.07 "Hg15 mi
5:30 AM18 °FPassing clouds.21 mph68%30.05 "Hg15 mi
4:30 AM19 °FPassing clouds.21 mph58%30.03 "Hg15 mi
3:30 AM19 °FPassing clouds.20 mph58%30.00 "Hg15 mi
2:30 AM21 °FPassing clouds.24 mph58%29.99 "Hg15 mi
1:30 AM25 °FPassing clouds.33 mph59%29.92 "Hg15 mi
12:30 AM28 °FSnow flurries. Mostly cloudy.23 mph80%29.90 "Hg15 mi
11:30 PM
Sun, Feb 7
28 °FSnow flurries. Overcast.16 mph86%29.90 "Hg15 mi
10:30 PM27 °FSnow flurries. Overcast.16 mph86%29.95 "Hg12 mi
9:30 PM27 °FOvercast.16 mph86%29.98 "Hg15 mi
8:30 PM28 °FPassing clouds.15 mph74%30.00 "Hg15 mi
7:30 PM28 °FPassing clouds.13 mph74%30.03 "Hg15 mi
6:30 PM28 °FOvercast.15 mph74%30.03 "Hg15 mi
5:30 PM27 °FPartly cloudy.13 mph74%30.04 "Hg15 mi
4:30 PM28 °FBroken clouds.13 mph64%30.03 "Hg15 mi
3:30 PM28 °FPartly sunny.13 mph74%30.06 "Hg15 mi
2:30 PM27 °FPartly sunny.13 mph74%30.09 "Hg15 mi
1:30 PM28 °FMostly cloudy.12 mph64%30.11 "Hg15 mi
12:30 PM27 °FMore clouds than sun.8 mph69%30.12 "Hg15 mi
11:30 AM25 °FMostly cloudy.6 mph69%30.15 "Hg15 mi
10:30 AM23 °FSnow flurries. Overcast.8 mph68%30.17 "Hg15 mi
9:30 AM23 °FMostly cloudy.8 mph68%30.15 "Hg15 mi
Weather by CustomWeather, © 2016

See weather overviewHow to use our weather pages